,,PA_Meas_PMT16A,,PR_Meas_QMR101_102,,RH_Meas_QMH101,,SR_Meas_QMS101,,TA_Meas_QMH101,,GenWind,,GenWind,
time,status,PA,status,PR,status,RH,status,SR,status,TA,status,DirAvg,status,SpdAvg,
2013-12-31, 00:00:04,VALID,918.73,VALID,0,VALID,96.116,VALID,0.107441,VALID,19.3323,VALID,104,VALID,1.01172,
2013-12-31, 00:01:04,VALID,918.726,VALID,0,VALID,96.116,VALID,0,VALID,19.3533,VALID,110,VALID,0.971484,
2013-12-31, 00:02:04,VALID,918.708,VALID,0,VALID,96.1236,VALID,0,VALID,19.3518,VALID,111,VALID,0.815234,
2013-12-31, 00:03:04,VALID,918.699,VALID,0,VALID,96.1084,VALID,0,VALID,19.3728,VALID,111,VALID,0.96875,
2013-12-31, 00:04:04,VALID,918.691,VALID,0,VALID,96.0855,VALID,0,VALID,19.3518,VALID,112,VALID,0.950781,
2013-12-31, 00:05:04,VALID,918.681,VALID,0,VALID,96.055,VALID,0,VALID,19.3518,VALID,112,VALID,1.1125,
2013-12-31, 00:06:04,VALID,918.69,VALID,0,VALID,96.0398,VALID,0,VALID,19.3323,VALID,112,VALID,1.05234,
2013-12-31, 00:07:04,VALID,918.678,VALID,0,VALID,96.0093,VALID,0,VALID,19.3518,VALID,112,VALID,1.03008,
2013-12-31, 00:08:04,VALID,918.668,VALID,0,VALID,95.9864,VALID,0,VALID,19.3128,VALID,112,VALID,0.925391,
2013-12-31, 00:09:04,VALID,918.697,VALID,0,VALID,95.9559,VALID,0,VALID,19.3128,VALID,115,VALID,0.951172,
2013-12-31, 00:10:04,VALID,918.672,VALID,0,VALID,95.9178,VALID,0,VALID,19.3128,VALID,115,VALID,1.01953,
2013-12-31, 00:11:04,VALID,918.708,VALID,0,VALID,95.8645,VALID,0,VALID,19.2933,VALID,115,VALID,1.03008,
2013-12-31, 00:12:04,VALID,918.673,VALID,0,VALID,95.834,VALID,0,VALID,19.2738,VALID,115,VALID,1.22773,
2013-12-31, 00:13:04,VALID,918.692,VALID,0,VALID,95.8187,VALID,0,VALID,19.2738,VALID,116,VALID,1.37305,
2013-12-31, 00:14:04,VALID,918.65,VALID,0,VALID,95.8263,VALID,0,VALID,19.2933,VALID,134,VALID,1.30508,
2013-12-31, 00:15:04,VALID,918.669,VALID,0,VALID,95.8111,VALID,0,VALID,19.3143,VALID,136,VALID,0.849609,
2013-12-31, 00:16:04,VALID,918.663,VALID,0,VALID,95.7958,VALID,0,VALID,19.2933,VALID,135,VALID,0.942187,
2013-12-31, 00:17:04,VALID,918.658,VALID,0,VALID,95.7882,VALID,0,VALID,19.2933,VALID,134,VALID,0.994922,
2013-12-31, 00:18:04,VALID,918.656,VALID,0,VALID,95.7425,VALID,0,VALID,19.2933,VALID,137,VALID,0.769531,
2013-12-31, 00:19:04,VALID,918.635,VALID,0,VALID,95.7349,VALID,0,VALID,19.2738,VALID,133,VALID,0.876953,
2013-12-31, 00:20:04,VALID,918.672,VALID,0,VALID,95.7501,VALID,0,VALID,19.2933,VALID,134,VALID,1.07305,
2013-12-31, 00:21:04,VALID,918.675,VALID,0,VALID,95.7349,VALID,0,VALID,19.3128,VALID,138,VALID,0.764453,
2013-12-31, 00:22:05,VALID,918.676,VALID,0,VALID,95.7272,VALID,0.107441,VALID,19.3128,VALID,138,VALID,0.777344,
2013-12-31, 00:23:05,VALID,918.661,VALID,0,VALID,95.7349,VALID,0,VALID,19.3323,VALID,138,VALID,0.864453,
2013-12-31, 00:24:05,VALID,918.678,VALID,0,VALID,95.6586,VALID,0,VALID,19.3728,VALID,138,VALID,0.558984,
2013-12-31, 00:25:05,VALID,918.657,VALID,0,VALID,95.6281,VALID,0,VALID,19.3518,VALID,138,VALID,0.825391,
2013-12-31, 00:26:05,VALID,918.652,VALID,0,VALID,95.5595,VALID,0,VALID,19.3923,VALID,138,VALID,0.661719,
2013-12-31, 00:27:05,VALID,918.663,VALID,0,VALID,95.5367,VALID,0,VALID,19.3908,VALID,138,VALID,0.427344,
2013-12-31, 00:28:05,VALID,918.634,VALID,0,VALID,95.3918,VALID,0,VALID,19.3908,VALID,138,VALID,0.286719,
2013-12-31, 00:29:05,VALID,918.631,VALID,0,VALID,95.3308,VALID,0,VALID,19.3713,VALID,138,VALID,0.546875,
2013-12-31, 00:30:05,VALID,918.625,VALID,0,VALID,95.3003,VALID,0.107441,VALID,19.4118,VALID,138,VALID,0.68125,
2013-12-31, 00:31:05,VALID,918.598,VALID,0,VALID,95.3537,VALID,0,VALID,19.3713,VALID,138,VALID,0.739062,
2013-12-31, 00:32:05,VALID,918.586,VALID,0,VALID,95.3232,VALID,0,VALID,19.3713,VALID,138,VALID,0.869922,
2013-12-31, 00:33:05,VALID,918.579,VALID,0,VALID,95.3232,VALID,0,VALID,19.3713,VALID,138,VALID,0.649609,
2013-12-31, 00:34:05,VALID,918.596,VALID,0,VALID,95.3384,VALID,0,VALID,19.3908,VALID,138,VALID,0.430859,
2013-12-31, 00:35:05,VALID,918.549,VALID,0,VALID,95.3232,VALID,0,VALID,19.4118,VALID,138,VALID,0.621094,
2013-12-31, 00:36:05,VALID,918.578,VALID,0,VALID,95.3003,VALID,0,VALID,19.4118,VALID,138,VALID,0.621484,
2013-12-31, 00:37:05,VALID,918.545,VALID,0,VALID,95.2775,VALID,0,VALID,19.3908,VALID,138,VALID,0.534375,
2013-12-31, 00:38:05,VALID,918.551,VALID,0,VALID,95.247,VALID,0.107441,VALID,19.4103,VALID,138,VALID,0.685938,
2013-12-31, 00:39:05,VALID,918.515,VALID,0,VALID,95.2241,VALID,0,VALID,19.4508,VALID,138,VALID,0.809766,
2013-12-31, 00:40:05,VALID,918.518,VALID,0,VALID,95.1555,VALID,0,VALID,19.4493,VALID,138,VALID,0.740625,
2013-12-31, 00:41:05,VALID,918.516,VALID,0,VALID,95.0411,VALID,0,VALID,19.4703,VALID,138,VALID,0.830469,
2013-12-31, 00:42:05,VALID,918.482,VALID,0,VALID,94.9344,VALID,0,VALID,19.4688,VALID,138,VALID,1.08047,
2013-12-31, 00:43:05,VALID,918.494,VALID,0,VALID,94.8124,VALID,0,VALID,19.5288,VALID,138,VALID,1.00625,
2013-12-31, 00:44:05,VALID,918.479,VALID,0,VALID,94.5837,VALID,0,VALID,19.5483,VALID,138,VALID,0.807422,
2013-12-31, 00:45:05,VALID,918.462,VALID,0,VALID,94.294,VALID,0,VALID,19.5678,VALID,138,VALID,0.773828,
2013-12-31, 00:46:05,VALID,918.464,VALID,0,VALID,94.0577,VALID,0,VALID,19.5678,VALID,138,VALID,0.737891,
2013-12-31, 00:47:05,VALID,918.427,VALID,0,VALID,93.8671,VALID,0,VALID,19.6068,VALID,138,VALID,0.839063,
2013-12-31, 00:48:05,VALID,918.394,VALID,0,VALID,93.7147,VALID,0,VALID,19.5663,VALID,138,VALID,0.65,
2013-12-31, 00:49:05,VALID,918.373,VALID,0,VALID,93.6232,VALID,0.107441,VALID,19.5663,VALID,138,VALID,0.739062,
2013-12-31, 00:50:05,VALID,918.405,VALID,0,VALID,93.5088,VALID,0,VALID,19.5468,VALID,138,VALID,0.555078,
2013-12-31, 00:51:05,VALID,918.392,VALID,0,VALID,93.5241,VALID,0,VALID,19.5483,VALID,138,VALID,0.680859,
2013-12-31, 00:52:05,VALID,918.374,VALID,0,VALID,93.5393,VALID,0,VALID,19.5078,VALID,138,VALID,0.629297,
2013-12-31, 00:53:05,VALID,918.379,VALID,0,VALID,93.5241,VALID,0,VALID,19.5093,VALID,138,VALID,0.868359,
2013-12-31, 00:54:05,VALID,918.365,VALID,0,VALID,93.5469,VALID,0,VALID,19.4898,VALID,138,VALID,0.596094,
2013-12-31, 00:55:05,VALID,918.346,VALID,0,VALID,93.6155,VALID,0,VALID,19.4493,VALID,138,VALID,0.622266,
2013-12-31, 00:56:05,VALID,918.336,VALID,0,VALID,93.6689,VALID,0,VALID,19.4103,VALID,138,VALID,0.533984,
2013-12-31, 00:57:05,VALID,918.309,VALID,0,VALID,93.7909,VALID,0,VALID,19.4103,VALID,138,VALID,0.745313,
2013-12-31, 00:58:05,VALID,918.283,VALID,0,VALID,93.9586,VALID,0,VALID,19.4118,VALID,138,VALID,1.03633,
2013-12-31, 00:59:05,VALID,918.291,VALID,0,VALID,94.073,VALID,0,VALID,19.3923,VALID,138,VALID,1.08125,
2013-12-31, 01:00:05,VALID,918.281,VALID,0,VALID,94.2178,VALID,0,VALID,19.3713,VALID,138,VALID,1.03711,
2013-12-31, 01:01:05,VALID,918.277,VALID,0,VALID,94.1797,VALID,0,VALID,19.3323,VALID,138,VALID,0.721875,
2013-12-31, 01:02:05,VALID,918.284,VALID,0,VALID,94.2864,VALID,0.107441,VALID,19.3323,VALID,137,VALID,0.712891,
2013-12-31, 01:03:05,VALID,918.274,VALID,0,VALID,94.3321,VALID,0,VALID,19.3338,VALID,137,VALID,1.11289,
2013-12-31, 01:04:05,VALID,918.286,VALID,0,VALID,94.4465,VALID,0,VALID,19.3143,VALID,137,VALID,0.985156,
2013-12-31, 01:05:05,VALID,918.286,VALID,0,VALID,94.4846,VALID,0,VALID,19.2543,VALID,137,VALID,1.17539,
2013-12-31, 01:06:05,VALID,918.253,VALID,0,VALID,94.6447,VALID,0,VALID,19.2348,VALID,137,VALID,0.709375,
2013-12-31, 01:07:05,VALID,918.267,VALID,0,VALID,94.8353,VALID,0,VALID,19.2348,VALID,137,VALID,0.478125,
2013-12-31, 01:08:05,VALID,918.253,VALID,0,VALID,94.9192,VALID,0,VALID,19.2153,VALID,139,VALID,0.958984,
2013-12-31, 01:09:05,VALID,918.262,VALID,0,VALID,94.9268,VALID,0.107441,VALID,19.2558,VALID,139,VALID,0.790234,
2013-12-31, 01:10:05,VALID,918.277,VALID,0,VALID,94.942,VALID,0,VALID,19.2363,VALID,139,VALID,0.497266,
2013-12-31, 01:11:05,VALID,918.273,VALID,0,VALID,94.9344,VALID,0,VALID,19.2363,VALID,139,VALID,0.385156,
2013-12-31, 01:12:05,VALID,918.278,VALID,0,VALID,94.9268,VALID,0,VALID,19.2363,VALID,139,VALID,0.31875,
2013-12-31, 01:13:05,VALID,918.268,VALID,0,VALID,94.9192,VALID,0,VALID,19.2153,VALID,139,VALID,0.44375,
2013-12-31, 01:14:05,VALID,918.257,VALID,0,VALID,94.9192,VALID,0,VALID,19.2363,VALID,139,VALID,0.484766,
2013-12-31, 01:15:05,VALID,918.264,VALID,0,VALID,94.9649,VALID,0,VALID,19.2363,VALID,139,VALID,0.708203,
2013-12-31, 01:16:05,VALID,918.257,VALID,0,VALID,94.9954,VALID,0,VALID,19.2363,VALID,139,VALID,0.853516,
2013-12-31, 01:17:05,VALID,918.244,VALID,0,VALID,95.0411,VALID,0,VALID,19.2168,VALID,139,VALID,0.820313,
2013-12-31, 01:18:05,VALID,918.215,VALID,0,VALID,95.0792,VALID,0,VALID,19.2363,VALID,139,VALID,0.733594,
2013-12-31, 01:19:05,VALID,918.207,VALID,0,VALID,95.125,VALID,0,VALID,19.2558,VALID,139,VALID,0.446875,
2013-12-31, 01:20:05,VALID,918.201,VALID,0,VALID,95.0869,VALID,0,VALID,19.2153,VALID,139,VALID,0.509375,
2013-12-31, 01:21:05,VALID,918.123,VALID,0,VALID,95.0792,VALID,0,VALID,19.2348,VALID,139,VALID,0,
2013-12-31, 01:22:05,VALID,918.149,VALID,0,VALID,95.0488,VALID,0,VALID,19.2558,VALID,139,VALID,0.302734,
2013-12-31, 01:23:05,VALID,918.143,VALID,0,VALID,95.0335,VALID,0,VALID,19.2363,VALID,139,VALID,0,
2013-12-31, 01:24:05,VALID,918.106,VALID,0,VALID,94.9801,VALID,0,VALID,19.2363,VALID,139,VALID,0,
2013-12-31, 01:25:05,VALID,918.059,VALID,0,VALID,94.9039,VALID,0,VALID,19.2168,VALID,139,VALID,0.555078,
2013-12-31, 01:26:05,VALID,918.073,VALID,0,VALID,94.8887,VALID,0,VALID,19.2168,VALID,139,VALID,0.820703,
2013-12-31, 01:27:05,VALID,918.048,VALID,0,VALID,94.9801,VALID,0,VALID,19.2363,VALID,139,VALID,0.682813,
2013-12-31, 01:28:05,VALID,918.078,VALID,0,VALID,95.0106,VALID,0,VALID,19.2558,VALID,139,VALID,0.867578,
2013-12-31, 01:29:05,VALID,918.068,VALID,0,VALID,95.0106,VALID,0,VALID,19.2558,VALID,139,VALID,0.783203,
2013-12-31, 01:30:05,VALID,918.055,VALID,0,VALID,95.0259,VALID,0,VALID,19.2558,VALID,139,VALID,0.789063,
2013-12-31, 01:31:05,VALID,918.049,VALID,0,VALID,95.0106,VALID,0,VALID,19.2558,VALID,139,VALID,0.718359,
2013-12-31, 01:32:05,VALID,918.039,VALID,0,VALID,94.9954,VALID,0,VALID,19.2558,VALID,139,VALID,0.790234,
2013-12-31, 01:33:05,VALID,918.019,VALID,0,VALID,94.9573,VALID,0,VALID,19.2348,VALID,139,VALID,1.03945,
2013-12-31, 01:34:05,VALID,918.012,VALID,0,VALID,94.9115,VALID,0,VALID,19.2558,VALID,134,VALID,1.13008,
2013-12-31, 01:35:05,VALID,917.992,VALID,0,VALID,94.8963,VALID,0,VALID,19.2363,VALID,130,VALID,1.06953,
2013-12-31, 01:36:05,VALID,917.988,VALID,0,VALID,94.8353,VALID,0,VALID,19.2363,VALID,130,VALID,0.891016,
2013-12-31, 01:37:05,VALID,917.957,VALID,0,VALID,94.7972,VALID,0,VALID,19.2168,VALID,130,VALID,1.14531,
2013-12-31, 01:38:05,VALID,917.954,VALID,0,VALID,94.8658,VALID,0,VALID,19.2363,VALID,131,VALID,1.03242,
2013-12-31, 01:39:05,VALID,917.956,VALID,0,VALID,94.7972,VALID,0,VALID,19.2363,VALID,135,VALID,0.940234,
2013-12-31, 01:40:05,VALID,917.947,VALID,0,VALID,94.7438,VALID,0,VALID,19.2363,VALID,135,VALID,0.674609,
2013-12-31, 01:41:05,VALID,917.885,VALID,0,VALID,94.6523,VALID,0,VALID,19.2363,VALID,135,VALID,0.447266,
2013-12-31, 01:42:05,VALID,917.879,VALID,0,VALID,94.4999,VALID,0,VALID,19.2572,VALID,134,VALID,0.752344,
2013-12-31, 01:43:05,VALID,917.857,VALID,0,VALID,94.3398,VALID,0,VALID,19.1973,VALID,133,VALID,0.354688,
2013-12-31, 01:44:05,VALID,917.848,VALID,0,VALID,94.477,VALID,0,VALID,19.1973,VALID,132,VALID,0.936719,
2013-12-31, 01:45:05,VALID,917.829,VALID,0,VALID,94.6447,VALID,0,VALID,19.1778,VALID,131,VALID,0.960156,
2013-12-31, 01:46:05,VALID,917.791,VALID,0,VALID,94.7896,VALID,0,VALID,19.1583,VALID,131,VALID,0.947266,
2013-12-31, 01:47:05,VALID,917.781,VALID,0,VALID,94.8048,VALID,0,VALID,19.1388,VALID,131,VALID,0.798047,
2013-12-31, 01:48:05,VALID,917.771,VALID,0,VALID,94.881,VALID,0,VALID,19.1193,VALID,131,VALID,1.04023,
2013-12-31, 01:49:05,VALID,917.742,VALID,0,VALID,94.8505,VALID,0,VALID,19.0593,VALID,131,VALID,0.778516,
2013-12-31, 01:50:05,VALID,917.749,VALID,0,VALID,94.8658,VALID,0,VALID,19.0608,VALID,131,VALID,0.9,
2013-12-31, 01:51:05,VALID,917.739,VALID,0,VALID,94.9725,VALID,0,VALID,19.0398,VALID,131,VALID,0.982813,
2013-12-31, 01:52:05,VALID,917.728,VALID,0,VALID,95.0259,VALID,0,VALID,19.0608,VALID,131,VALID,1.02734,
2013-12-31, 01:53:05,VALID,917.726,VALID,0,VALID,95.0488,VALID,0,VALID,19.0413,VALID,131,VALID,1.01133,
2013-12-31, 01:54:05,VALID,917.72,VALID,0,VALID,95.1174,VALID,0,VALID,19.0413,VALID,131,VALID,1.07148,
2013-12-31, 01:55:05,VALID,917.7,VALID,0,VALID,95.1097,VALID,0,VALID,19.0413,VALID,131,VALID,0.650391,
2013-12-31, 01:56:05,VALID,917.688,VALID,0,VALID,95.125,VALID,0,VALID,19.0218,VALID,131,VALID,1.05898,
2013-12-31, 01:57:05,VALID,917.678,VALID,0,VALID,95.2088,VALID,0,VALID,19.0413,VALID,131,VALID,0.589453,
2013-12-31, 01:58:05,VALID,917.673,VALID,0,VALID,95.2851,VALID,0,VALID,19.0413,VALID,137,VALID,1.30195,
2013-12-31, 01:59:05,VALID,917.682,VALID,0,VALID,95.3537,VALID,0,VALID,19.0413,VALID,136,VALID,0.809375,
2013-12-31, 02:00:05,VALID,917.651,VALID,0,VALID,95.3537,VALID,0,VALID,19.0817,VALID,137,VALID,1.225,
2013-12-31, 02:01:05,VALID,917.632,VALID,0,VALID,95.3766,VALID,0.107441,VALID,19.0413,VALID,135,VALID,0.869922,
2013-12-31, 02:02:05,VALID,917.613,VALID,0,VALID,95.3842,VALID,0,VALID,19.0608,VALID,137,VALID,0.948828,
2013-12-31, 02:03:05,VALID,917.615,VALID,0,VALID,95.3689,VALID,0,VALID,19.0218,VALID,135,VALID,0.542578,
2013-12-31, 02:04:05,VALID,917.614,VALID,0,VALID,95.3689,VALID,0,VALID,19.0218,VALID,136,VALID,0.793359,
2013-12-31, 02:05:05,VALID,917.585,VALID,0,VALID,95.3461,VALID,0,VALID,19.0023,VALID,144,VALID,0.646875,
2013-12-31, 02:06:05,VALID,917.601,VALID,0,VALID,95.3613,VALID,0,VALID,19.0037,VALID,138,VALID,1.03359,
2013-12-31, 02:07:05,VALID,917.59,VALID,0,VALID,95.3918,VALID,0,VALID,18.9842,VALID,135,VALID,1.20469,
2013-12-31, 02:08:05,VALID,917.579,VALID,0,VALID,95.4223,VALID,0,VALID,18.9828,VALID,141,VALID,1.24648,
2013-12-31, 02:09:05,VALID,917.589,VALID,0,VALID,95.4452,VALID,0,VALID,18.9828,VALID,139,VALID,0.918359,
2013-12-31, 02:10:05,VALID,917.556,VALID,0,VALID,95.4375,VALID,0,VALID,18.9619,VALID,138,VALID,0.883203,
2013-12-31, 02:11:05,VALID,917.58,VALID,0,VALID,95.4147,VALID,0,VALID,18.9619,VALID,146,VALID,0.583594,
2013-12-31, 02:12:05,VALID,917.572,VALID,0,VALID,95.3918,VALID,0,VALID,18.9828,VALID,128,VALID,0.816016,
2013-12-31, 02:13:05,VALID,917.606,VALID,0,VALID,95.3384,VALID,0,VALID,18.9633,VALID,124,VALID,1.08086,
2013-12-31, 02:14:05,VALID,917.606,VALID,0,VALID,95.3156,VALID,0,VALID,18.9424,VALID,123,VALID,0.890625,
2013-12-31, 02:15:05,VALID,917.586,VALID,0,VALID,95.2851,VALID,0,VALID,18.9424,VALID,129,VALID,0.990234,
2013-12-31, 02:16:05,VALID,917.553,VALID,0,VALID,95.3232,VALID,0,VALID,18.9828,VALID,134,VALID,0.784766,
2013-12-31, 02:17:05,VALID,917.562,VALID,0,VALID,95.2775,VALID,0,VALID,19.0023,VALID,135,VALID,0.64375,
2013-12-31, 02:18:05,VALID,917.534,VALID,0,VALID,95.3003,VALID,0,VALID,19.0008,VALID,131,VALID,0.707422,
2013-12-31, 02:19:05,VALID,917.512,VALID,0,VALID,95.2546,VALID,0,VALID,19.0413,VALID,132,VALID,0.651563,
2013-12-31, 02:20:05,VALID,917.525,VALID,0,VALID,95.1326,VALID,0,VALID,19.0203,VALID,145,VALID,0.846484,
2013-12-31, 02:21:05,VALID,917.525,VALID,0,VALID,95.0945,VALID,0,VALID,19.0398,VALID,129,VALID,0.96875,
2013-12-31, 02:22:05,VALID,917.513,VALID,0,VALID,95.0488,VALID,0,VALID,19.0803,VALID,147,VALID,0.952344,
2013-12-31, 02:23:05,VALID,917.521,VALID,0,VALID,94.8887,VALID,0,VALID,19.0803,VALID,137,VALID,0.709375,
2013-12-31, 02:24:05,VALID,917.487,VALID,0,VALID,94.7743,VALID,0.107441,VALID,19.0398,VALID,134,VALID,0.839063,
2013-12-31, 02:25:05,VALID,917.494,VALID,0,VALID,94.7133,VALID,0,VALID,19.0608,VALID,136,VALID,0.764063,
2013-12-31, 02:26:05,VALID,917.47,VALID,0,VALID,94.7362,VALID,0,VALID,19.0803,VALID,134,VALID,0.701953,
2013-12-31, 02:27:05,VALID,917.456,VALID,0,VALID,94.66,VALID,0.107441,VALID,19.0788,VALID,134,VALID,0.465234,
2013-12-31, 02:28:05,VALID,917.478,VALID,0,VALID,94.6371,VALID,0,VALID,19.0788,VALID,139,VALID,0.748047,
2013-12-31, 02:29:05,VALID,917.452,VALID,0,VALID,94.3779,VALID,0.107441,VALID,19.0593,VALID,139,VALID,0.451953,
2013-12-31, 02:30:05,VALID,917.447,VALID,0,VALID,94.3169,VALID,0.107441,VALID,19.0398,VALID,135,VALID,0.546484,
2013-12-31, 02:31:05,VALID,917.43,VALID,0,VALID,94.1339,VALID,0,VALID,19.0203,VALID,135,VALID,0.445313,
2013-12-31, 02:32:05,VALID,917.439,VALID,0,VALID,94.1644,VALID,0.107441,VALID,18.9604,VALID,135,VALID,0.528906,
2013-12-31, 02:33:05,VALID,917.395,VALID,0,VALID,94.233,VALID,0,VALID,18.9424,VALID,135,VALID,0.48125,
2013-12-31, 02:34:05,VALID,917.389,VALID,0,VALID,94.5075,VALID,0,VALID,18.9243,VALID,135,VALID,0.521875,
2013-12-31, 02:35:05,VALID,917.375,VALID,0,VALID,94.8124,VALID,0,VALID,18.9229,VALID,135,VALID,0.626953,
2013-12-31, 02:36:05,VALID,917.385,VALID,0,VALID,94.9268,VALID,0,VALID,18.9034,VALID,135,VALID,0.679297,
2013-12-31, 02:37:05,VALID,917.397,VALID,0,VALID,94.9801,VALID,0,VALID,18.9452,VALID,135,VALID,0.700391,
2013-12-31, 02:38:05,VALID,917.36,VALID,0,VALID,95.0259,VALID,0.107441,VALID,18.9229,VALID,135,VALID,0.709766,
2013-12-31, 02:39:05,VALID,917.327,VALID,0,VALID,95.0335,VALID,0.107441,VALID,18.9229,VALID,135,VALID,0.251563,
2013-12-31, 02:40:05,VALID,917.351,VALID,0,VALID,95.0411,VALID,0,VALID,18.9424,VALID,135,VALID,0.381641,
2013-12-31, 02:41:05,VALID,917.296,VALID,0,VALID,94.9115,VALID,0,VALID,18.9229,VALID,135,VALID,0.357422,
2013-12-31, 02:42:05,VALID,917.276,VALID,0,VALID,94.5075,VALID,0.107441,VALID,18.8658,VALID,135,VALID,0.354688,
2013-12-31, 02:43:05,VALID,917.248,VALID,0,VALID,94.7362,VALID,0,VALID,18.8254,VALID,135,VALID,0.216797,
2013-12-31, 02:44:05,VALID,917.25,VALID,0,VALID,94.9192,VALID,0,VALID,18.8254,VALID,135,VALID,0.00664063,
2013-12-31, 02:45:05,VALID,917.203,VALID,0,VALID,95.0335,VALID,0,VALID,18.8463,VALID,135,VALID,0.5125,
2013-12-31, 02:46:05,VALID,917.224,VALID,0,VALID,95.1326,VALID,0,VALID,18.8463,VALID,135,VALID,0.55625,
2013-12-31, 02:47:05,VALID,917.225,VALID,0,VALID,95.1936,VALID,0,VALID,18.8658,VALID,135,VALID,0.670703,
2013-12-31, 02:48:05,VALID,917.229,VALID,0,VALID,95.2165,VALID,0,VALID,18.8658,VALID,135,VALID,0.912891,
2013-12-31, 02:49:05,VALID,917.213,VALID,0,VALID,95.2851,VALID,0,VALID,18.9243,VALID,136,VALID,0.587891,
2013-12-31, 02:50:05,VALID,917.237,VALID,0,VALID,95.247,VALID,0,VALID,18.9243,VALID,136,VALID,0.50625,
2013-12-31, 02:51:05,VALID,917.232,VALID,0,VALID,95.186,VALID,0,VALID,18.9048,VALID,136,VALID,0.334375,
2013-12-31, 02:52:05,VALID,917.229,VALID,0,VALID,95.1174,VALID,0,VALID,18.9048,VALID,136,VALID,0.232031,
2013-12-31, 02:53:05,VALID,917.246,VALID,0,VALID,95.0564,VALID,0,VALID,18.8839,VALID,136,VALID,0.198437,
2013-12-31, 02:54:05,VALID,917.223,VALID,0,VALID,94.9801,VALID,0,VALID,18.8839,VALID,136,VALID,0.211328,
2013-12-31, 02:55:05,VALID,917.236,VALID,0,VALID,94.9039,VALID,0.107441,VALID,18.8658,VALID,136,VALID,0.326562,
2013-12-31, 02:56:05,VALID,917.25,VALID,0,VALID,94.9039,VALID,0.107441,VALID,18.8449,VALID,136,VALID,0.479688,
2013-12-31, 02:57:05,VALID,917.235,VALID,0,VALID,94.8658,VALID,0,VALID,18.8463,VALID,136,VALID,0.0761719,
2013-12-31, 02:58:05,VALID,917.25,VALID,0,VALID,94.881,VALID,0,VALID,18.8268,VALID,136,VALID,0.104297,
2013-12-31, 02:59:05,VALID,917.229,VALID,0,VALID,94.8658,VALID,0,VALID,18.8073,VALID,136,VALID,0.401563,
2013-12-31, 03:00:05,VALID,917.243,VALID,0,VALID,94.9039,VALID,0.107441,VALID,18.8073,VALID,136,VALID,0.362109,
2013-12-31, 03:01:05,VALID,917.243,VALID,0,VALID,94.9878,VALID,0,VALID,18.7878,VALID,136,VALID,0,
2013-12-31, 03:02:05,VALID,917.242,VALID,0,VALID,95.003,VALID,0,VALID,18.7878,VALID,136,VALID,0,
2013-12-31, 03:03:05,VALID,917.271,VALID,0,VALID,95.0106,VALID,0,VALID,18.7669,VALID,136,VALID,0.121875,
2013-12-31, 03:04:05,VALID,917.269,VALID,0,VALID,95.0411,VALID,0,VALID,18.7488,VALID,136,VALID,0.152344,
2013-12-31, 03:05:05,VALID,917.278,VALID,0,VALID,95.064,VALID,0,VALID,18.7293,VALID,136,VALID,0.11875,
2013-12-31, 03:06:05,VALID,917.296,VALID,0,VALID,95.0564,VALID,0,VALID,18.7308,VALID,136,VALID,0.329297,
2013-12-31, 03:07:05,VALID,917.305,VALID,0,VALID,95.1174,VALID,0,VALID,18.6903,VALID,137,VALID,0.717969,
2013-12-31, 03:08:05,VALID,917.315,VALID,0,VALID,95.1936,VALID,0,VALID,18.7098,VALID,140,VALID,0.696094,
2013-12-31, 03:09:05,VALID,917.306,VALID,0,VALID,95.2317,VALID,0,VALID,18.7098,VALID,140,VALID,0.727344,
2013-12-31, 03:10:05,VALID,917.314,VALID,0,VALID,95.3156,VALID,0,VALID,18.7098,VALID,140,VALID,0.78125,
2013-12-31, 03:11:05,VALID,917.302,VALID,0,VALID,95.3689,VALID,0,VALID,18.7098,VALID,155,VALID,0.529688,
2013-12-31, 03:12:05,VALID,917.281,VALID,0,VALID,95.4071,VALID,0.107441,VALID,18.7293,VALID,155,VALID,0.639063,
2013-12-31, 03:13:05,VALID,917.293,VALID,0,VALID,95.4452,VALID,0,VALID,18.7084,VALID,155,VALID,0.432813,
2013-12-31, 03:14:05,VALID,917.285,VALID,0,VALID,95.4985,VALID,0,VALID,18.7683,VALID,155,VALID,0.774219,
2013-12-31, 03:15:05,VALID,917.294,VALID,0,VALID,95.529,VALID,0,VALID,18.7683,VALID,155,VALID,0.794922,
2013-12-31, 03:16:05,VALID,917.278,VALID,0,VALID,95.5367,VALID,0,VALID,18.7683,VALID,155,VALID,0.572266,
2013-12-31, 03:17:05,VALID,917.286,VALID,0,VALID,95.4909,VALID,0,VALID,18.7878,VALID,155,VALID,0.635547,
2013-12-31, 03:18:05,VALID,917.252,VALID,0,VALID,95.4528,VALID,0.107441,VALID,18.7878,VALID,155,VALID,0.671484,
2013-12-31, 03:19:04,VALID,917.234,VALID,0,VALID,95.4604,VALID,0,VALID,18.7878,VALID,155,VALID,0.821484,
2013-12-31, 03:20:04,VALID,917.214,VALID,0,VALID,95.4604,VALID,0,VALID,18.7878,VALID,155,VALID,1.10977,
2013-12-31, 03:21:04,VALID,917.225,VALID,0,VALID,95.4147,VALID,0.107441,VALID,18.7669,VALID,155,VALID,0.940234,
2013-12-31, 03:22:04,VALID,917.223,VALID,0,VALID,95.3613,VALID,0,VALID,18.8073,VALID,155,VALID,0.933594,
2013-12-31, 03:23:04,VALID,917.244,VALID,0,VALID,95.3308,VALID,0,VALID,18.7669,VALID,155,VALID,0.564844,
2013-12-31, 03:24:04,VALID,917.24,VALID,0,VALID,95.3079,VALID,0,VALID,18.8073,VALID,155,VALID,0.732813,
2013-12-31, 03:25:04,VALID,917.221,VALID,0,VALID,95.2851,VALID,0,VALID,18.8073,VALID,155,VALID,0.982031,
2013-12-31, 03:26:04,VALID,917.234,VALID,0,VALID,95.2393,VALID,0,VALID,18.7864,VALID,155,VALID,0.951172,
2013-12-31, 03:27:04,VALID,917.205,VALID,0,VALID,95.2165,VALID,0,VALID,18.8073,VALID,155,VALID,0.567969,
2013-12-31, 03:28:04,VALID,917.187,VALID,0,VALID,95.2012,VALID,0,VALID,18.8268,VALID,155,VALID,0.896875,
2013-12-31, 03:29:04,VALID,917.208,VALID,0,VALID,95.186,VALID,0,VALID,18.8268,VALID,155,VALID,0.638672,
2013-12-31, 03:30:04,VALID,917.167,VALID,0,VALID,95.1631,VALID,0,VALID,18.8463,VALID,155,VALID,0.558203,
2013-12-31, 03:31:04,VALID,917.167,VALID,0,VALID,95.1174,VALID,0,VALID,18.8254,VALID,155,VALID,0.475,
2013-12-31, 03:32:04,VALID,917.146,VALID,0,VALID,95.1174,VALID,0,VALID,18.8449,VALID,155,VALID,0.601563,
2013-12-31, 03:33:04,VALID,917.17,VALID,0,VALID,95.064,VALID,0,VALID,18.8658,VALID,155,VALID,0.601953,
2013-12-31, 03:34:04,VALID,917.122,VALID,0,VALID,95.0183,VALID,0.107441,VALID,18.8839,VALID,150,VALID,0.794141,
2013-12-31, 03:35:04,VALID,917.152,VALID,0,VALID,94.9801,VALID,0,VALID,18.8853,VALID,134,VALID,0.363672,
2013-12-31, 03:36:04,VALID,917.15,VALID,0,VALID,94.9268,VALID,0,VALID,18.8853,VALID,151,VALID,0.398438,
2013-12-31, 03:37:04,VALID,917.129,VALID,0,VALID,94.8505,VALID,0.107441,VALID,18.8644,VALID,150,VALID,0.410937,
2013-12-31, 03:38:04,VALID,917.173,VALID,0,VALID,94.7743,VALID,0,VALID,18.8853,VALID,150,VALID,0.269922,
2013-12-31, 03:39:04,VALID,917.161,VALID,0,VALID,94.7972,VALID,0.107441,VALID,18.8658,VALID,150,VALID,0.433984,
2013-12-31, 03:40:04,VALID,917.168,VALID,0,VALID,94.7743,VALID,0,VALID,18.8463,VALID,150,VALID,0.227734,
2013-12-31, 03:41:04,VALID,917.156,VALID,0,VALID,94.8353,VALID,0,VALID,18.8059,VALID,150,VALID,0.440234,
2013-12-31, 03:42:04,VALID,917.185,VALID,0,VALID,94.8277,VALID,0,VALID,18.7878,VALID,149,VALID,0.651563,
2013-12-31, 03:43:04,VALID,917.152,VALID,0,VALID,94.8429,VALID,0,VALID,18.7683,VALID,132,VALID,0.491406,